Waarnemingen

Advertentie
Mijn weer
Ahaus, Duitsland (10309): temperatuur & dauwpunt: 19.09.2017 06:00:00 - 25.09.2017 06:00:00 (CEST)Ahaus, Duitsland (10309): temperatuur 5cm & temperatuur -5cm: 19.09.2017 06:00:00 - 25.09.2017 06:00:00 (CEST)Ahaus, Duitsland (10309): temperatuur -20cm & temperatuur -100cm: 19.09.2017 06:00:00 - 25.09.2017 06:00:00 (CEST)Ahaus, Duitsland (10309): windsnelheid & windstoten: 19.09.2017 06:00:00 - 25.09.2017 06:00:00 (CEST)Ahaus, Duitsland (10309): windrichting: 19.09.2017 06:00:00 - 25.09.2017 06:00:00 (CEST)Ahaus, Duitsland (10309): luchtdruk: 19.09.2017 06:00:00 - 25.09.2017 06:00:00 (CEST)Ahaus, Duitsland (10309): zicht: 19.09.2017 06:00:00 - 25.09.2017 06:00:00 (CEST)Ahaus, Duitsland (10309): Zonneschijnduur: 19.09.2017 06:00:00 - 25.09.2017 06:00:00 (CEST)Ahaus, Duitsland (10309): neerslag: 19.09.2017 06:00:00 - 25.09.2017 06:00:00 (CEST)
Datum & Tijd tt [°C] td [°C] tt 5cm [°C] tt -5cm [°C] tt -20cm [°C] tt -100cm [°C] ff [km/u] ff [kn] fx [km/u] fx [kn] dd ppp [hPa] vv [km] sd [min] rr [mm]
25.09.2017 06:00:00 12,8 12,2 11,1 12,2 14,4 14,8 5 3 11 6 O 1022,1 5 0 0,0
25.09.2017 05:00:00 11,5 11,5 9,4 12,0 14,6 14,8 5 3 8 4 ONO 1022,2 0,2 0 0,0
25.09.2017 04:00:00 12,4 12,1 9,8 13,0 14,7 14,8 5 3 8 4 N 1022,5 2,1 0 0,0
25.09.2017 03:00:00 13,1 12,6 11,9 13,5 14,9 14,8 3 2 19 10 NNO 1022,7 3,3 0 0,0
25.09.2017 02:00:00 12,4 12,0 11,8 13,0 15,1 14,8 4 2 9 5 OZO 1023,1 2,9 0 0,0
25.09.2017 01:00:00 13,0 12,4 10,0 13,5 15,3 14,8 3 2 14 8 N 1023,2 3,1 0 0,0
25.09.2017 00:00:00 13,9 12,8 13,3 14,0 15,5 14,8 6 3 13 7 ONO 1023,4 6 0 0,0
24.09.2017 23:00:00 11,9 11,1 10,7 13,7 15,7 14,8 5 3 6 4 NNO 1023,5 4,1 0 0,0
24.09.2017 22:00:00 13,1 11,8 10,0 14,1 16,0 14,8 3 2 8 4 NO 1023,5 7 0 0,0
24.09.2017 21:00:00 14,2 11,9 10,5 14,6 16,3 14,8 5 3 14 8 NO 1023,3 12 0 0,0
24.09.2017 20:00:00 15,4 11,6 13,6 15,6 16,6 14,8 9 5 16 9 ONO 1023,2 21 1 0,0
24.09.2017 19:00:00 17,3 10,7 16,0 17,4 16,7 14,8 10 6 18 10 NO 1022,9 29 59 0,0
24.09.2017 18:00:00 18,4 10,2 20,2 19,2 16,6 14,8 9 5 18 10 NO 1022,9 21 60 0,0
24.09.2017 17:00:00 18,7 9,8 21,8 20,6 16,3 14,8 9 5 18 10 ONO 1023,0 24 60 0,0
24.09.2017 16:00:00 19,0 9,6 23,5 21,6 15,8 14,8 9 5 17 9 NNO 1023,1 19 59 0,0
24.09.2017 15:00:00 18,4 10,6 23,5 21,9 15,2 14,8 7 4 15 8 NNO 1023,4 14 54 0,0
24.09.2017 14:00:00 18,2 11,5 25,7 21,8 14,5 14,8 7 4 19 10 O 1023,6 13 59 0,0
24.09.2017 13:00:00 16,7 11,2 22,2 19,9 13,9 14,8 13 7 21 12 ONO 1023,5 13 60 0,0
24.09.2017 12:00:00 15,2 11,9 20,7 18,2 13,4 14,8 9 5 14 7 O 1023,6 7 58 0,0
24.09.2017 11:00:00 12,3 11,7 16,5 15,0 13,1 14,8 4 2 13 7 NNO 1023,8 2,0 15 0,0
24.09.2017 10:00:00 9,6 9,6 10,9 12,1 13,1 14,8 5 3 12 7 NO 1023,8 0,1 0 0,0
24.09.2017 09:00:00 8,9 8,8 9,5 11,5 13,2 14,8 5 3 7 4 NNW 1023,5 0,3 0 0,0
24.09.2017 08:00:00 8,7 8,7 9,0 11,0 13,3 14,8 5 3 6 4 WNW 1023,3 0,2 0 0,0
24.09.2017 07:00:00 8,9 8,9 9,0 11,0 13,4 14,8 3 2 9 5 NNO 1023,0 0,1 0 0,0
24.09.2017 06:00:00 9,1 9,1 9,2 11,0 13,5 14,8 4 2 7 4 NNO 1022,8 0,1 0 0,0
24.09.2017 05:00:00 9,5 9,5 9,6 10,8 13,7 14,8 4 2 8 5 NO 1022,9 0,1 0 0,0
24.09.2017 04:00:00 8,0 8,0 5,6 9,9 14,0 14,8 4 2 19 10 N 1023,0 2,1 0 0,0
24.09.2017 03:00:00 6,8 6,6 4,6 10,2 14,3 14,8 5 3 6 4 NO 1023,2 6 0 0,0
24.09.2017 02:00:00 7,0 6,8 5,2 10,6 14,7 14,7 5 3 19 10 N 1023,4 6 0 0,0
24.09.2017 01:00:00 7,4 7,1 5,7 11,0 15,1 14,7 3 2 19 10 NW 1023,6 3,8 0 0,0
24.09.2017 00:00:00 7,7 7,4 5,4 11,6 15,5 14,7 8 4 19 10 ONO 1023,5 7 0 0,0
23.09.2017 23:00:00 8,8 8,5 6,0 12,3 15,9 14,7 4 2 19 10 ZZO 1023,7 7 0 0,0
23.09.2017 22:00:00 9,5 9,2 7,0 13,1 16,4 14,7 4 2 19 10 NNW 1023,6 5 0 0,0
23.09.2017 21:00:00 10,7 9,8 8,0 14,2 16,8 14,7 4 2 19 10 N 1023,6 9 0 0,0
23.09.2017 20:00:00 12,9 10,6 9,6 15,8 17,1 14,7 4 2 6 3 NO 1023,6 15 2 0,0
23.09.2017 19:00:00 16,3 9,9 15,0 18,1 17,2 14,7 4 2 9 5 ONO 1023,3 23 60 0,0
23.09.2017 18:00:00 16,9 10,2 19,5 19,8 17,1 14,7 7 4 16 9 O 1023,4 27 60 0,0
23.09.2017 17:00:00 17,8 10,2 21,8 21,2 16,8 14,7 5 3 15 8 N 1023,5 31 60 0,0
23.09.2017 16:00:00 17,7 9,9 23,5 21,8 16,5 14,7 5 3 9 5 O 1023,9 34 39 0,0
23.09.2017 15:00:00 15,9 10,6 18,9 21,3 16,0 14,7 6 4 16 9 NO 1024,3 24 38 0,0
23.09.2017 14:00:00 16,7 11,2 24,7 23,1 15,4 14,7 9 5 15 8 O 1024,6 21 55 0,0
23.09.2017 13:00:00 15,5 10,6 20,6 21,2 14,7 14,7 6 3 13 7 ONO 1024,7 26 52 0,0
23.09.2017 12:00:00 15,0 10,6 20,7 18,4 14,3 14,7 6 4 11 6 NNO 1025,1 22 29 0,0
23.09.2017 11:00:00 13,6 11,0 16,4 16,0 14,1 14,7 7 4 12 6 NNO 1025,3 17 23 0,0
23.09.2017 10:00:00 12,2 11,1 13,9 14,4 14,0 14,7 5 3 8 4 N 1024,9 7 0 0,0
23.09.2017 09:00:00 11,4 10,9 12,0 13,1 14,1 14,7 4 2 8 4 NW 1024,5 3,7 0 0,0
23.09.2017 08:00:00 11,0 10,8 10,8 12,8 14,2 14,7 6 3 19 10 W 1024,3 2,0 0 0,0
23.09.2017 07:00:00 11,6 11,6 11,8 13,2 14,3 14,7 7 4 19 10 NNO 1024,0 1,8 0 0,0
23.09.2017 06:00:00 11,8 11,8 11,9 13,2 14,4 14,7 7 4 12 7 NW 1023,8 0,2 0 0,0
23.09.2017 05:00:00 11,7 11,7 11,7 13,4 14,5 14,7 5 3 13 7 NW 1023,7 2,1 0 0,0
23.09.2017 04:00:00 12,2 12,2 12,2 13,5 14,6 14,7 8 5 11 6 NW 1023,5 0,1 0 0,0
23.09.2017 03:00:00 12,3 12,2 12,4 13,6 14,8 14,7 4 2 19 10 WNW 1023,4 0,2 0 0,0
23.09.2017 02:00:00 11,7 11,4 10,7 13,3 15,0 14,7 4 2 7 4 NW 1023,1 0,1 0 0,0
23.09.2017 01:00:00 13,2 12,9 11,8 14,4 15,2 14,7 5 3 8 4 NW 1022,8 1,2 0 0,0
23.09.2017 00:00:00 13,5 12,9 13,2 14,7 15,3 14,7 4 2 8 4 W 1022,8 2,0 0 0,2
22.09.2017 23:00:00 14,0 13,1 13,5 15,1 15,4 14,7 4 2 11 6 ONO 1022,3 3,1 0 0,8
22.09.2017 22:00:00 15,1 12,6 14,6 15,5 15,6 14,7 7 4 19 10 W 1022,0 8 0 0,0
22.09.2017 21:00:00 14,6 13,5 13,8 15,9 15,7 14,7 4 2 19 10 ZW 1021,5 9 0 0,0
22.09.2017 20:00:00 15,4 13,1 14,3 16,8 15,8 14,7 4 2 19 10 ZO 1021,0 9 0 0,0
22.09.2017 19:00:00 17,2 13,2 16,4 18,0 15,7 14,7 6 3 19 10 ZO 1020,7 16 2 0,0
22.09.2017 18:00:00 17,6 11,3 16,7 18,5 15,5 14,7 4 2 18 10 W 1020,4 17 22 0,0
22.09.2017 17:00:00 18,9 10,2 21,6 20,3 15,1 14,8 7 4 15 8 W 1020,3 22 21 0,0
22.09.2017 16:00:00 18,9 10,9 22,0 21,3 14,5 14,8 5 3 13 7 ZZW 1020,3 19 45 0,0
22.09.2017 15:00:00 17,9 11,1 21,2 19,6 14,0 14,8 5 3 8 4 W 1020,3 11 30 0,0
22.09.2017 14:00:00 16,4 11,8 17,6 17,6 13,6 14,7 6 3 9 5 ZW 1020,4 9 0 0,0
22.09.2017 13:00:00 15,8 11,3 17,3 17,5 13,1 14,7 6 3 8 5 ZW 1020,3 9 18 0,0
22.09.2017 12:00:00 14,4 10,4 16,4 16,5 12,6 14,7 6 3 9 5 ZZO 1020,3 8 26 0,0
22.09.2017 11:00:00 14,3 11,0 15,8 15,7 12,2 14,7 6 3 10 6 ZW 1020,3 9 58 0,0
22.09.2017 10:00:00 12,2 10,1 13,0 12,4 12,0 14,7 5 3 8 5 Z 1020,4 7 60 0,0
22.09.2017 09:00:00 9,1 8,7 10,0 9,7 12,1 14,7 4 2 19 10 OZO 1020,0 2,8 32 0,0
22.09.2017 08:00:00 5,9 5,7 4,9 8,6 12,4 14,7 13 7 19 10 O 1019,9 3,1 0 0,0
22.09.2017 07:00:00 6,0 5,9 4,6 8,8 12,6 14,7 19 10 19 10 OZO 1019,7 0,4 0 0,0
22.09.2017 06:00:00 6,7 6,7 4,5 9,1 12,9 14,7 19 10 19 10 O 1019,6 3,0 0 0,0
22.09.2017 05:00:00 6,9 6,9 4,9 9,5 13,1 14,7 19 10 19 10 O 1019,6 4,4 0 0,0
22.09.2017 04:00:00 7,5 7,5 5,5 9,9 13,4 14,7 19 10 19 10 O 1019,6 0,7 0 0,0
22.09.2017 03:00:00 7,9 7,9 5,8 10,3 13,7 14,7 4 2 19 10 OZO 1019,9 0,7 0 0,0
22.09.2017 02:00:00 8,4 8,3 6,4 10,7 14,0 14,8 3 2 19 10 O 1020,2 1,3 0 0,0
22.09.2017 01:00:00 8,6 8,5 6,7 11,2 14,3 14,8 4 2 19 10 O 1020,1 3,7 0 0,0
22.09.2017 00:00:00 9,2 9,1 7,1 11,7 14,7 14,8 3 2 19 10 OZO 1020,1 1,1 0 0,0
21.09.2017 23:00:00 9,6 9,5 7,5 12,2 15,1 14,8 3 2 19 10 OZO 1020,2 0,7 0 0,0
21.09.2017 22:00:00 10,2 9,9 8,1 12,9 15,4 14,8 4 2 6 3 ONO 1020,0 7 0 0,0
21.09.2017 21:00:00 10,8 10,3 8,5 14,0 15,7 14,8 5 3 19 10 OZO 1020,1 8 0 0,0
21.09.2017 20:00:00 12,9 11,4 10,1 15,5 16,0 14,8 4 2 19 10 NO 1019,8 10 0 0,0
21.09.2017 19:00:00 16,1 11,6 14,0 17,5 16,0 14,8 3 2 7 4 ONO 1019,5 32 2 0,0
21.09.2017 18:00:00 17,6 9,7 18,6 19,4 15,8 14,8 6 3 10 5 ZZO 1019,4 38 48 0,0
21.09.2017 17:00:00 17,8 8,9 18,6 19,4 15,6 14,8 8 5 17 9 Z 1019,6 42 41 0,0
21.09.2017 16:00:00 18,0 9,7 20,5 20,5 15,2 14,8 10 5 19 11 Z 1019,8 30 49 0,0
21.09.2017 15:00:00 18,0 8,9 21,6 21,2 14,6 14,8 11 6 19 11 Z 1020,0 49 60 0,0
21.09.2017 14:00:00 17,6 9,3 20,9 20,7 14,0 14,8 10 6 21 11 Z 1020,4 23 60 0,0
21.09.2017 13:00:00 17,2 9,6 20,3 19,6 13,3 14,8 13 7 23 12 ZZW 1020,8 31 60 0,0
21.09.2017 12:00:00 16,0 9,6 18,7 18,0 12,7 14,8 12 7 19 10 Z 1021,0 20 60 0,0
21.09.2017 11:00:00 15,0 10,0 17,2 15,7 12,3 14,8 9 5 17 9 Z 1021,4 21 60 0,0
21.09.2017 10:00:00 13,2 9,7 14,6 13,0 12,1 14,8 10 6 15 8 Z 1021,4 16 60 0,0
21.09.2017 09:00:00 11,5 9,3 10,9 10,6 12,2 14,8 7 4 12 6 Z 1021,0 12 58 0,0
21.09.2017 08:00:00 9,1 8,5 7,2 9,4 12,4 14,8 7 4 10 5 Z 1020,8 6 3 0,0
21.09.2017 07:00:00 9,1 8,4 6,1 9,8 12,6 14,8 5 3 9 5 Z 1020,6 6 0 0,0
21.09.2017 06:00:00 10,0 9,0 8,1 10,4 12,8 14,8 6 4 10 6 Z 1020,7 7 0 0,0
21.09.2017 05:00:00 10,2 9,3 8,0 10,9 12,9 14,8 6 3 19 10 Z 1020,6 7 0 0,0
21.09.2017 04:00:00 10,5 9,3 9,2 11,2 13,0 14,8 4 2 8 5 ZO 1020,8 6 0 0,0
21.09.2017 03:00:00 10,8 9,1 9,3 11,1 13,2 14,8 5 3 10 5 Z 1020,6 7 0 0,0
21.09.2017 02:00:00 11,2 9,2 9,8 11,3 13,4 14,8 5 3 10 6 Z 1020,7 7 0 0,0
21.09.2017 01:00:00 10,1 9,0 7,8 11,3 13,6 14,9 5 3 6 3 ZO 1020,6 4,8 0 0,0
21.09.2017 00:00:00 10,0 9,0 7,9 11,4 13,8 14,9 4 2 6 3 ZZO 1020,6 5 0 0,0
20.09.2017 23:00:00 11,0 9,3 8,2 12,3 14,0 14,9 4 2 6 4 ZZO 1020,7 7 0 0,0
20.09.2017 22:00:00 12,0 10,4 11,2 13,1 14,1 14,9 4 2 7 4 ZZO 1020,5 7 0 0,0
20.09.2017 21:00:00 11,4 10,1 10,4 13,1 14,3 14,9 5 3 6 4 ZZO 1020,5 6 0 0,0
20.09.2017 20:00:00 12,4 10,7 10,9 14,1 14,4 14,9 4 2 6 4 ZZO 1020,3 3,6 0 0,0
20.09.2017 19:00:00 13,8 10,5 12,3 15,3 14,4 14,9 5 3 13 7 Z 1019,9 9 39 0,0
20.09.2017 18:00:00 15,3 10,4 16,6 16,3 14,2 14,9 9 5 16 9 ZZW 1019,8 9 17 0,0
20.09.2017 17:00:00 14,7 10,6 15,6 16,2 14,1 14,9 8 4 14 7 ZZW 1020,0 8 1 0,0
20.09.2017 16:00:00 14,1 9,2 14,9 16,0 13,8 14,9 7 4 16 9 WZW 1020,2 10 0 0,0
20.09.2017 15:00:00 14,7 9,7 16,3 17,1 13,5 14,9 10 6 22 12 WZW 1020,2 21 2 0,0
20.09.2017 14:00:00 12,7 10,2 13,5 15,4 13,3 14,9 13 7 30 16 WZW 1020,7 9 0 0,1
20.09.2017 13:00:00 12,5 10,9 12,8 14,7 13,0 14,9 16 8 27 15 W 1020,7 3,3 0 0,2
20.09.2017 12:00:00 13,6 10,4 15,0 15,3 12,7 14,9 10 5 19 10 WZW 1020,6 10 0 0,0
20.09.2017 11:00:00 12,4 11,1 13,1 13,4 12,5 14,9 9 5 18 10 ZW 1020,6 6 0 0,0
20.09.2017 10:00:00 11,5 10,4 11,3 12,2 12,4 14,9 9 5 13 7 ZZW 1020,4 8 0 0,0
20.09.2017 09:00:00 10,8 9,9 10,7 11,4 12,4 14,9 7 4 11 6 ZZW 1020,2 8 0 0,0
20.09.2017 08:00:00 10,4 9,5 10,0 10,8 12,5 14,9 4 2 11 6 WZW 1020,2 7 0 0,0
20.09.2017 07:00:00 10,1 9,3 9,5 10,6 12,6 14,9 6 4 14 7 ZW 1020,0 7 0 0,0
20.09.2017 06:00:00 9,9 9,2 9,4 10,8 12,7 14,9 6 4 10 6 ZW 1019,9 6 0 0,0
20.09.2017 05:00:00 9,9 9,2 9,4 10,6 12,8 14,9 8 4 13 7 ZW 1019,8 6 0 0,0
20.09.2017 04:00:00 9,4 9,0 8,8 10,4 13,0 14,9 6 4 11 6 ZW 1019,8 4,2 0 0,0
20.09.2017 03:00:00 8,9 8,6 8,2 10,4 13,2 14,9 4 2 10 5 ZW 1020,0 2,5 0 0,0
20.09.2017 02:00:00 9,3 9,0 8,6 10,7 13,5 14,9 7 4 10 6 ZW 1020,1 2,3 0 0,0
20.09.2017 01:00:00 9,1 8,9 7,7 10,6 13,7 14,9 5 3 8 5 ZW 1020,2 2,0 0 0,0
20.09.2017 00:00:00 9,3 8,9 7,5 11,3 14,0 14,9 5 3 9 5 ZW 1020,3 2,5 0 0,0
19.09.2017 23:00:00 9,8 9,3 8,7 11,8 14,3 15,0 7 4 11 6 ZW 1020,3 3,5 0 0,0
19.09.2017 22:00:00 9,8 9,3 6,8 12,3 14,6 15,0 5 3 9 5 ZW 1020,1 3,1 0 0,0
19.09.2017 21:00:00 11,4 10,3 9,0 13,8 14,8 15,0 5 3 13 7 WZW 1019,9 4,7 0 0,0
19.09.2017 20:00:00 12,5 10,4 12,0 14,7 14,9 15,0 8 4 14 8 ZW 1019,4 6 0 0,0
19.09.2017 19:00:00 13,3 9,5 13,2 15,9 14,9 15,0 8 4 13 7 WZW 1019,0 10 30 0,0
19.09.2017 18:00:00 14,0 8,8 15,6 17,3 14,7 15,0 7 4 16 9 W 1018,7 12 57 0,0
19.09.2017 17:00:00 13,9 9,3 16,7 18,1 14,4 15,0 9 5 14 8 W 1018,6 11 48 0,0
19.09.2017 16:00:00 13,4 8,9 18,6 16,9 14,1 15,0 5 3 19 10 ZW 1018,6 10 7 0,0
19.09.2017 15:00:00 12,1 8,6 13,8 15,8 13,9 15,0 9 5 16 9 WNW 1018,8 10 0 0,0
19.09.2017 14:00:00 12,6 9,4 14,7 16,4 13,6 15,0 11 6 17 9 NNW 1018,6 10 4 0,0
19.09.2017 13:00:00 12,7 8,7 15,7 16,5 13,3 15,0 9 5 14 8 NNW 1018,2 11 4 0,0
19.09.2017 12:00:00 12,2 9,5 14,5 15,5 13,0 15,0 10 5 13 7 N 1018,0 9 0 0,0
19.09.2017 11:00:00 12,0 10,1 13,5 14,0 12,8 15,0 8 4 11 6 N 1017,6 8 0 0,0
19.09.2017 10:00:00 11,4 10,0 12,6 13,0 12,7 15,0 3 2 16 9 NO 1017,0 6 0 0,0
19.09.2017 09:00:00 10,7 10,0 11,3 12,1 12,7 15,0 5 3 7 4 N 1016,5 4,4 0 0,0
19.09.2017 08:00:00 10,5 10,0 10,7 11,8 12,8 15,0 4 2 19 10 N 1016,0 4,1 0 0,0
19.09.2017 07:00:00 10,4 9,9 10,4 11,8 12,8 15,1 3 2 8 4 ZZO 1015,5 4,2 0 0,0
19.09.2017 06:00:00 10,3 9,6 10,3 11,8 12,8 15,1 4 2 6 4 WZW 1015,3 4,3 0 0,0

tt = temperatuur
td = dauwpunt
tt 5cm = temperatuur 5cm
tt -5cm = temperatuur -5cm
tt -20cm = temperatuur -20cm
tt -100cm = temperatuur -100cm
ff = windsnelheid
fx = windstoten
dd = windrichting
ppp = luchtdruk
vv = zicht
sd = Zonneschijnduur
rr = neerslag

Weerstations in de omgeving